CAPE
347 559 162 203 243 233 352 191 149 226 295 269 317 398 462 795 716 436 340 320 341 289 386 417 426 477 411 99 78 240 497 1929 1018 807 481 369 360 208 132 199 382 1402 1308 1299
273 198 221 140 157 229 260 227 279 479 368 486 377 540 464 563 793 721 569 389 287 275 409 545 616 664 655 616 736 405 609 1401 1385 925 887 735 421 271 131 251 3148 1965 2152 2221
470 469 266 284 249 314 253 301 276 165 813 772 743 799 652 595 617 683 614 528 393 275 314 528 730 734 826 938 1078 1241 1794 2139 2282 2257 1348 1329 1295 1438 1156 691 1223 1549 2230 2353
498 564 204 248 190 95 77 218 110 314 362 518 1290 573 463 427 541 621 698 646 505 451 347 497 645 910 998 1078 1113 1575 2283 2599 2385 2997 2294 3378 2018 1251 761 796 584 2374 1966 1742
444 487 386 277 132 79 165 238 331 293 286 338 609 252 404 220 383 570 680 723 655 502 412 433 608 836 923 898 974 1430 3109 3095 2781 2882 3259 2336 2915 1961 2155 2178 2610 2335 1978 1339
501 536 597 407 273 218 182 396 431 380 303 295 427 619 170 46 334 225 480 627 798 734 565 437 419 631 744 763 982 1173 3359 4392 3269 2812 2509 2760 2364 2005 1796 1726 2598 1388 1127 536
676 673 629 460 437 486 467 464 499 416 360 488 228 527 317 36 186 453 665 672 818 915 874 687 513 489 608 741 936 1038 3160 3172 1834 1362 1208 923 606 546 825 570 821 692 606 297
392 348 559 323 155 354 295 603 430 504 349 264 176 62 617 463 628 1118 1128 1001 1036 1156 1145 1040 742 597 637 805 1179 1010 1220 1206 1040 913 629 387 314 283 274 229 235 12 20 131
418 389 108 0 0 0 23 252 188 272 215 265 188 383 190 230 448 917 1233 1095 1305 1559 2119 1098 1020 1229 1446 1963 1420 1167 1049 761 552 416 266 201 170 132 118 54 56 44 3 27
29 157 104 6 0 0 0 0 6 249 241 169 153 205 187 133 322 1353 1508 1344 1241 1373 1607 1814 1998 2165 1705 1358 1059 893 761 668 424 240 171 0 9 2 1 0 0 0 0 0
0 0 0 0 0 0 0 0 0 0 0 34 16 107 233 223 545 1730 1651 1151 862 819 698 994 1035 1176 1307 1172 1020 820 548 387 300 304 269 24 12 8 4 0 0 0 2 0
0 0 0 0 0 0 0 0 0 1 7 23 24 63 1017 1479 1807 1897 1218 772 642 651 605 685 654 739 769 939 907 946 613 324 244 72 39 34 17 30 0 0 0 0 1 10
0 0 0 1 0 0 0 0 0 0 0 1 15 42 1391 1547 1484 1552 1035 692 892 989 1054 847 963 1015 1007 983 987 932 634 445 81 69 32 40 138 90 35 37 32 15 34 44
0 0 0 0 2 0 3 0 0 2 3 5 10 15 1300 1062 1558 964 1023 979 1039 1312 1296 1518 1477 1451 1231 1090 698 347 183 196 191 151 153 152 156 255 181 141 56 27 14 2
0 0 0 0 0 0 0 0 0 0 0 15 8 0 884 1257 1519 1297 1172 960 1068 1067 1081 984 816 718 691 396 419 330 232 225 208 192 218 246 213 119 57 0 0 0 0 0
0 8 0 0 0 0 0 0 0 1 0 8 13 6 1389 1532 1817 1293 1210 1114 917 892 834 1005 874 710 605 543 557 472 380 320 271 197 149 170 106 16 1 0 0 0 0 1
0 4 33 15 19 20 25 6 2 6 3 59 46 1182 1191 1541 1606 1465 1297 1192 1198 1083 1194 1217 1165 1052 890 763 729 551 565 453 369 418 251 130 35 5 9 9 7 8 15 24
0 1 6 39 35 68 79 13 82 75 63 161 317 1012 1413 1912 1879 1691 1620 1524 1397 1328 1322 1284 1074 940 763 630 520 411 395 385 273 184 158 98 55 60 35 26 41 54 52 49
0 0 4 89 94 65 38 38 46 91 252 564 946 1625 1809 1674 1465 1425 1353 1279 1443 1429 1309 1178 1040 824 454 231 124 50 26 4 1 34 62 63 61 51 45 42 31 51 135 332
1 2 8 101 79 43 115 47 74 14 14 933 1359 1612 1610 1129 1062 1220 1133 1390 1467 1460 1406 1168 920 332 72 92 26 62 41 0 0 0 0 5 4 14 18 30 86 211 593 392
127 33 56 66 43 96 114 66 52 1 267 611 772 1015 1140 1040 1770 1657 1382 1467 1570 1591 1523 1238 143 20 164 206 138 65 11 0 0 0 1 3 16 34 34 43 107 111 257 353
167 225 132 103 85 110 121 91 73 735 514 560 764 1134 1360 1386 1087 1248 1458 1622 1598 1636 1396 318 30 92 330 297 359 488 315 106 7 3 30 65 82 55 133 626 389 282 517 730
68 173 234 250 423 375 226 541 479 582 729 823 1059 1135 1418 1013 836 1088 1563 1743 1717 1614 820 116 100 304 501 448 437 545 380 243 302 194 190 167 184 152 287 410 486 155 682 213
260 270 144 188 153 176 174 294 382 354 656 612 459 485 562 887 621 619 1040 1353 1516 1116 433 207 176 324 471 474 437 441 486 461 368 340 306 295 290 256 332 111 55 76 64 77
75 520 81 211 235 220 174 215 302 512 455 249 114 38 23 39 544 221 458 744 1025 945 563 334 443 653 618 516 470 407 446 386 357 154 59 30 11 11 154 404 23 15 364 12
167 111 149 287 365 139 414 246 318 341 224 70 29 34 16 3 244 546 504 731 736 865 840 788 803 923 944 704 624 687 516 472 405 5 1 2 4 5 5 8 24 0 0 0
CIN
-63 -1 -4 0 -19 -66 -61 -33 -1 -1 -3 0 0 -7 -7 0 0 0 0 -1 0 0 0 -3 -2 0 -1 -7 -31 -31 -2 0 0 0 0 0 0 -3 -12 0 0 0 -1 0
-2 -113 -7 -10 0 -4 -3 0 -7 -5 0 0 -1 0 0 0 0 0 0 -2 -6 0 0 0 0 0 0 -1 0 -10 -8 0 -2 0 0 -2 0 -1 -19 -2 -13 -1 -1 0
-22 0 -2 0 -19 0 -1 -4 -18 -3 0 -9 -5 -2 -1 -1 0 -6 0 0 -2 -2 -1 -1 0 -1 -1 0 0 0 -5 0 -1 0 0 0 0 -6 0 0 0 -2 0 0
-14 -8 -10 -1 -1 -1 -22 -50 -4 -4 0 -49 -4 -14 -2 -1 0 0 0 0 -1 0 -2 0 -1 0 0 -1 0 -1 0 0 0 0 -1 -1 0 0 -1 -1 -1 -4 -3 0
-16 0 0 -2 -1 -16 -45 0 0 0 0 0 -1 -1 -55 -5 -3 0 0 0 0 0 -1 0 -1 -1 0 -1 -1 0 0 0 0 0 0 0 -2 -2 -5 -12 -12 -5 0 -4
-12 -14 -1 -1 -2 -7 -16 0 0 -2 0 -2 -38 -42 -11 -7 0 -15 0 0 -1 -1 -3 -8 -3 -1 -1 -1 0 -1 0 0 0 0 0 -4 -18 -6 -18 -46 -7 -21 -18 -23
0 -2 -1 -2 0 0 -2 0 0 -1 -40 -21 -45 -32 -15 -51 -17 -10 -25 -22 -16 -10 -3 -6 -5 0 0 -2 -1 0 -14 -15 -7 -1 0 -5 -15 -38 -27 -47 -4 -3 -14 -26
-5 -10 -4 0 -1 -1 0 -10 0 -2 0 -2 -157 -135 0 -11 -21 -44 -71 -101 -123 -65 -3 0 -1 -1 -1 -1 -230 -43 -27 -48 -43 -39 -29 -31 -16 -10 -8 -8 -1 -3 -32 -4
0 0 -3 0 0 0 -25 -2 0 0 0 0 0 -3 -1 -7 -9 -35 -48 -125 -112 -85 -29 0 -17 -12 -10 -150 -27 -27 -38 -91 -64 -85 -89 -46 -15 -4 -8 -32 -65 -5 -6 -1
-7 -4 -3 0 0 0 0 0 0 -1 0 -1 -2 -2 -28 -5 -1 -8 -56 -164 -190 -162 -171 -163 -133 -120 -105 -54 -47 -99 -98 -58 -55 -57 -24 0 -17 -46 -16 0 0 0 0 0
0 0 0 0 0 0 0 0 0 0 0 -4 0 0 0 -1 -4 -4 -121 -304 -366 -362 -354 -103 -79 -78 -78 -59 -75 -64 -69 -72 -68 -65 -64 -69 -304 0 0 0 0 0 0 0
0 0 0 0 0 0 0 0 0 0 0 0 0 0 -19 -28 -42 -65 -322 -412 -415 -395 -386 -354 -140 -270 -130 -118 -81 -57 -88 -62 -87 -230 -271 -308 -3 -145 0 0 0 0 0 -9
0 0 0 0 0 0 0 0 0 0 0 0 0 0 -39 -73 -112 -234 -348 -400 -332 -286 -244 -194 -214 -168 -142 -105 -71 -46 -57 -46 -225 -219 -237 -172 -83 -135 -260 -125 -37 -17 -17 -1
0 0 0 0 -1 0 0 0 0 0 0 0 0 -1 -37 -43 -95 -284 -283 -284 -248 -179 -151 -97 -91 -76 -80 -76 -74 -132 -202 -140 -126 -123 -112 -94 -77 -30 -12 -1 -25 -21 -3 -12
0 0 0 0 0 0 0 0 0 0 0 0 -1 -1 0 -3 -28 -174 -202 -231 -191 -165 -119 -109 -126 -138 -119 -167 -135 -116 -154 -146 -127 -111 -65 -34 -25 -36 -40 0 0 0 0 0
0 -29 0 0 0 0 0 -1 0 -13 0 -1 -1 -5 -4 -17 -88 -180 -172 -154 -143 -129 -125 -67 -75 -95 -101 -107 -87 -97 -99 -104 -102 -121 -131 -76 -116 -210 0 0 0 0 0 0
0 -25 -10 -17 -9 -5 0 -1 -1 0 -3 -13 -6 -8 0 -50 -69 -129 -130 -102 -79 -73 -42 -21 -12 -25 -42 -50 -43 -57 -58 -47 -35 -23 -40 -67 -127 0 0 0 0 0 0 0
0 -50 -17 -2 0 0 0 -1 -2 -1 -4 -5 -1 -1 0 -2 -25 -31 -46 -30 -21 -21 -15 -16 -25 -27 -39 -47 -41 -41 -26 -30 -28 -49 -56 -63 -61 -54 -90 0 0 0 0 0
0 0 0 0 0 0 -3 -1 -1 -2 -2 -1 -1 -2 -6 -15 -13 -22 -13 -8 -1 -5 -8 -18 -17 -19 -61 -95 -124 -121 -124 -118 -81 -71 -49 -40 -13 -45 -79 -30 0 0 0 0
0 0 0 0 0 0 -3 0 -26 -24 -13 -2 0 0 0 -13 0 -1 -13 -1 -4 0 -2 -11 -17 -87 -157 -128 -165 -89 -84 0 0 0 0 0 0 0 0 0 0 -2 -2 0
0 -2 0 0 -1 0 -6 -15 -17 0 -3 -5 0 0 -1 -1 -4 -3 -12 0 0 0 0 -6 -159 -219 -91 -67 -61 -65 -62 0 0 0 0 0 -10 -36 -29 -3 -4 -4 0 0
0 0 0 -4 -1 0 -5 -13 -4 -14 -20 -9 -1 -1 -1 -11 -20 -4 0 0 -4 -3 -14 -99 -174 -105 -33 -39 -31 -11 -7 -8 -2 0 -4 -16 -19 -18 0 -1 0 0 0 0
0 -1 -1 -1 -2 -18 -4 -7 -24 -18 -7 -1 -1 0 0 -2 -4 -2 0 0 0 -1 -41 -96 -94 -33 -14 -21 -12 0 0 -4 0 0 0 -2 -8 -14 -5 0 -1 -12 0 -4
0 -5 0 0 -1 -1 -11 -22 -33 -25 0 0 -3 -4 -2 0 -1 0 0 0 0 -3 -44 -45 -34 -7 -9 -13 -11 -1 0 0 0 0 0 0 -3 -5 -2 -28 0 -22 -19 -28
-103 -2 -3 -1 0 -10 -13 -9 -16 -11 -7 -12 -16 -47 -78 -65 -1 -22 -10 0 0 -2 -14 -12 -3 0 -3 -7 -6 -5 0 0 0 -15 -74 -73 0 0 -10 0 0 0 0 0
0 -1 0 -3 -1 -4 -1 -16 -12 -14 -17 -24 -35 -48 -80 -19 -2 0 -1 0 0 -1 -8 -9 -3 0 0 -1 -2 0 -1 0 0 -29 0 0 0 0 0 0 -10 0 0 0
Wind_Speed
12 11 5 18 28 14 37 16 7 3 20 7 6 6 10 19 18 17 16 15 13 10 16 16 13 13 12 nan nan 10 7 11 10 9 8 8 8 7 6 7 8 17 12 11
9 22 17 15 8 5 5 6 7 7 7 2 5 9 12 20 19 18 20 19 16 15 15 17 17 14 11 15 16 15 11 11 11 9 8 8 8 11 11 13 23 19 15 15
6 6 4 5 7 13 1 12 6 11 9 9 4 10 8 11 14 13 16 21 23 22 19 19 17 15 15 15 18 17 15 15 14 10 13 14 11 15 17 17 17 19 20 19
13 9 3 7 8 nan nan 29 16 14 5 18 16 10 8 8 12 15 14 16 17 24 21 20 21 20 13 15 18 21 20 18 19 18 13 18 19 19 20 20 20 30 29 24
16 7 5 6 16 nan 26 5 5 1 6 7 24 3 19 15 23 22 20 21 17 17 22 22 25 23 18 16 16 18 23 22 19 25 19 22 23 23 27 28 32 36 33 35
15 11 9 12 10 13 14 1 8 9 11 3 41 22 30 nan 21 25 25 22 22 21 23 20 19 22 22 20 18 19 25 29 29 24 21 19 25 29 31 32 33 39 38 41
2 3 10 12 7 16 7 9 3 13 21 20 15 12 27 nan 26 24 26 23 20 19 21 21 16 19 22 23 22 21 29 34 32 38 37 36 36 35 36 36 36 40 47 48
15 11 9 15 12 12 20 20 12 7 6 15 43 nan 17 39 42 40 32 28 24 16 16 23 27 23 25 25 45 44 44 46 44 46 44 41 39 40 44 51 57 nan nan 64
12 6 33 nan nan nan nan 7 1 16 9 8 4 13 31 44 45 37 42 35 31 29 33 24 29 24 40 47 44 45 48 46 50 52 51 49 50 46 46 nan nan nan nan nan
nan 19 13 nan nan nan nan nan nan 8 10 18 19 10 28 18 24 43 31 33 30 30 33 36 37 48 51 49 41 45 47 50 51 52 49 nan nan nan nan nan nan nan nan nan
nan nan nan nan nan nan nan nan nan nan nan nan nan 12 27 24 29 46 43 37 27 28 26 30 38 43 47 48 47 50 48 46 40 41 51 nan nan nan nan nan nan nan nan nan
nan nan nan nan nan nan nan nan nan nan nan nan nan nan 44 46 45 52 46 36 32 31 31 30 31 35 40 42 41 41 40 36 38 nan nan nan nan nan nan nan nan nan nan nan
nan nan nan nan nan nan nan nan nan nan nan nan nan nan 46 47 50 52 45 37 34 34 37 37 38 37 38 38 37 37 38 40 nan nan nan nan 41 nan nan nan nan nan nan nan
nan nan nan nan nan nan nan nan nan nan nan nan nan nan 48 47 48 44 43 40 40 40 42 42 40 38 36 36 38 40 43 43 42 43 44 43 43 43 43 40 nan nan nan nan
nan nan nan nan nan nan nan nan nan nan nan nan nan nan 34 45 43 41 47 49 46 46 45 43 38 36 37 40 41 43 44 44 45 44 45 45 47 46 nan nan nan nan nan nan
nan nan nan nan nan nan nan nan nan nan nan nan nan nan 61 60 57 54 50 45 44 42 38 36 35 38 39 42 44 47 49 52 49 49 50 49 49 nan nan nan nan nan nan nan
nan nan nan nan nan nan nan nan nan nan nan nan nan 36 30 36 41 46 43 40 38 38 38 38 38 42 44 45 46 48 54 54 50 52 54 54 nan nan nan nan nan nan nan nan
nan nan nan nan nan nan nan nan nan nan nan 13 19 54 48 48 47 43 41 33 36 36 34 33 34 36 37 40 43 51 52 49 50 53 56 nan nan nan nan nan nan nan nan nan
nan nan nan nan nan nan nan nan nan nan 21 23 36 33 38 42 41 37 33 31 34 34 33 34 35 39 35 38 36 nan nan nan nan nan nan nan nan nan nan nan nan nan 21 22
nan nan nan 8 nan nan 30 nan nan nan nan 37 37 32 34 26 20 34 42 21 32 31 33 34 36 34 nan nan nan nan nan nan nan nan nan nan nan nan nan nan nan 25 25 24
15 nan nan nan nan nan 41 nan nan nan 23 30 25 19 23 19 24 32 37 30 28 29 31 33 35 nan 33 31 31 nan nan nan nan nan nan nan nan nan nan nan 13 14 15 12
8 6 3 14 nan 21 32 nan nan 27 19 22 23 19 25 24 25 26 30 29 29 29 31 31 nan nan 31 32 31 29 27 28 nan nan nan nan nan nan 12 18 15 14 13 14
nan 16 18 17 21 28 22 28 17 14 16 17 21 20 27 25 25 24 25 26 26 26 26 26 27 30 31 32 29 26 28 25 21 14 11 13 10 10 13 14 14 14 18 17
16 12 12 21 25 19 19 19 15 11 16 20 22 22 20 18 20 20 23 23 22 23 25 26 28 31 30 31 27 23 26 18 14 11 10 10 12 13 14 13 nan nan nan nan
nan 18 nan 13 21 15 16 15 20 19 21 24 25 nan nan nan 24 20 21 17 19 22 24 24 25 29 30 30 25 23 18 12 10 9 nan nan nan nan 15 20 nan nan 14 nan
16 16 14 26 22 12 22 16 20 20 20 nan nan nan nan nan 18 19 15 16 18 21 23 24 25 27 29 28 24 22 17 14 11 nan nan nan nan nan nan nan nan nan nan nan
Wind_Direction
123 109 88 157 250 112 47 271 290 60 256 145 153 46 314 329 7 1 352 342 347 351 331 326 349 329 303 nan nan 296 274 263 239 248 230 251 250 267 263 259 262 249 255 244
31 46 69 170 216 109 166 205 178 274 256 351 315 68 360 355 355 6 352 348 356 346 330 333 332 334 332 316 309 310 299 284 273 255 243 238 248 265 280 262 256 255 237 244
142 140 229 94 129 75 351 287 272 221 319 344 357 36 24 8 332 348 358 353 356 4 353 333 325 330 337 329 321 322 317 302 291 274 280 280 267 259 260 271 275 280 267 257
330 116 91 74 75 nan nan 120 281 26 59 279 95 308 295 306 323 335 354 349 350 343 350 344 338 331 334 335 335 327 319 309 299 295 278 289 279 286 284 277 276 275 265 262
203 345 329 191 199 nan 307 187 162 126 64 8 330 4 231 287 293 319 348 343 344 337 336 339 338 342 339 340 328 326 312 311 308 305 301 293 294 278 262 263 275 265 264 262
291 165 255 232 220 213 205 231 355 22 37 55 248 160 279 nan 267 270 303 321 338 342 332 335 326 315 317 328 318 315 317 325 329 317 305 279 256 255 256 256 262 266 270 269
332 340 325 287 240 295 293 89 57 250 212 210 223 3 267 nan 279 284 281 285 306 331 334 324 326 320 319 321 318 311 302 282 275 276 276 272 273 273 271 265 265 282 270 261
286 277 129 293 256 187 262 158 238 323 321 302 318 nan 244 275 281 277 273 276 275 289 308 317 313 310 307 297 275 278 281 284 280 282 279 268 272 272 280 278 278 nan nan 256
181 161 296 nan nan nan nan 350 313 206 205 237 291 304 308 303 296 277 270 269 264 263 248 302 284 284 284 280 283 288 290 292 292 291 288 275 270 272 272 nan nan nan nan nan
nan 199 217 nan nan nan nan nan nan 304 204 210 198 254 254 244 297 282 269 266 261 261 249 249 254 261 268 276 280 284 285 286 290 292 289 nan nan nan nan nan nan nan nan nan
nan nan nan nan nan nan nan nan nan nan nan nan nan 259 271 289 257 275 281 275 258 255 257 260 263 271 277 281 284 283 282 282 285 285 293 nan nan nan nan nan nan nan nan nan
nan nan nan nan nan nan nan nan nan nan nan nan nan nan 264 273 267 270 272 277 269 264 266 270 271 275 277 280 283 288 293 291 286 nan nan nan nan nan nan nan nan nan nan nan
nan nan nan nan nan nan nan nan nan nan nan nan nan nan 274 276 278 281 285 286 282 278 274 270 271 276 276 280 284 286 288 283 nan nan nan nan 304 nan nan nan nan nan nan nan
nan nan nan nan nan nan nan nan nan nan nan nan nan nan 283 275 275 276 276 285 283 283 284 284 281 276 274 279 278 279 280 283 287 291 294 298 298 302 309 315 nan nan nan nan
nan nan nan nan nan nan nan nan nan nan nan nan nan nan 280 279 278 277 281 288 293 296 294 291 289 285 281 281 285 287 285 287 286 282 287 292 298 302 nan nan nan nan nan nan
nan nan nan nan nan nan nan nan nan nan nan nan nan nan 256 262 275 278 284 288 293 291 290 291 291 288 289 289 289 289 290 290 291 291 290 292 295 nan nan nan nan nan nan nan
nan nan nan nan nan nan nan nan nan nan nan nan nan 269 274 253 271 281 288 294 293 294 295 296 292 296 293 289 288 287 284 284 284 286 288 290 nan nan nan nan nan nan nan nan
nan nan nan nan nan nan nan nan nan nan nan 237 224 250 250 266 276 290 296 300 296 294 299 297 295 293 295 293 293 292 288 285 282 287 286 nan nan nan nan nan nan nan nan nan
nan nan nan nan nan nan nan nan nan nan 237 251 253 261 265 273 285 288 290 289 291 294 294 290 295 296 296 296 295 nan nan nan nan nan nan nan nan nan nan nan nan nan 280 278
nan nan nan 237 nan nan 255 nan nan nan nan 262 275 281 278 287 285 285 277 291 297 296 289 300 303 301 nan nan nan nan nan nan nan nan nan nan nan nan nan nan nan 297 301 303
331 nan nan nan nan nan 256 nan nan nan 236 260 277 276 280 269 256 287 316 313 298 294 299 298 305 nan 309 311 310 nan nan nan nan nan nan nan nan nan nan nan 332 349 360 351
206 299 162 217 nan 240 252 nan nan 241 244 251 263 275 274 271 271 285 306 303 299 301 299 308 nan nan 313 315 317 318 315 310 nan nan nan nan nan nan 316 331 336 345 354 359
nan 182 257 208 232 236 243 250 254 230 255 259 266 278 289 288 283 281 290 301 303 308 308 313 315 314 317 320 324 323 319 317 312 300 302 310 316 327 333 334 333 345 350 349
276 260 219 229 267 253 261 262 257 261 270 274 273 282 286 305 288 287 288 298 305 313 318 321 320 318 320 324 327 327 325 334 337 327 337 347 347 349 347 337 nan nan nan nan
nan 194 nan 233 274 258 264 268 278 280 280 272 272 nan nan nan 296 292 293 300 310 317 321 325 324 323 327 326 329 332 331 337 348 340 nan nan nan nan 336 340 nan nan 349 nan
270 281 254 230 241 250 271 281 290 286 292 nan nan nan nan nan 295 292 292 306 320 328 332 332 333 332 330 328 330 329 319 316 325 nan nan nan nan nan nan nan nan nan nan nan